TimeEDT,TemperatureF,Dew PointF,Humidity,Sea Level PressureIn,VisibilityMPH,Wind Direction,Wind SpeedMPH,Gust SpeedMPH,PrecipitationIn,Events,Conditions,WindDirDegrees,DateUTC
12:15 AM,69.8,62.6,78,29.96,10.0,SSW,10.4,-,N/A,,Scattered Clouds,200,2013-04-19 04:15:00
12:35 AM,69.8,62.6,78,29.96,10.0,SSW,6.9,-,N/A,,Scattered Clouds,200,2013-04-19 04:35:00
12:55 AM,69.8,62.6,78,29.95,10.0,SSW,4.6,-,N/A,,Clear,200,2013-04-19 04:55:00
1:15 AM,69.8,62.6,78,29.95,10.0,SSW,5.8,-,N/A,,Scattered Clouds,200,2013-04-19 05:15:00
1:35 AM,68.0,62.6,83,29.94,10.0,South,8.1,-,N/A,,Mostly Cloudy,180,2013-04-19 05:35:00
1:55 AM,68.0,62.6,83,29.93,10.0,South,6.9,-,N/A,,Scattered Clouds,180,2013-04-19 05:55:00
2:15 AM,68.0,62.6,83,29.93,10.0,South,5.8,-,N/A,,Clear,180,2013-04-19 06:15:00
2:35 AM,66.2,60.8,83,29.92,10.0,South,4.6,-,N/A,,Clear,170,2013-04-19 06:35:00
2:55 AM,64.4,60.8,88,29.91,10.0,SSE,4.6,-,N/A,,Clear,160,2013-04-19 06:55:00
3:15 AM,62.6,60.8,94,29.90,10.0,SSE,4.6,-,N/A,,Clear,150,2013-04-19 07:15:00
3:35 AM,62.6,60.8,94,29.90,10.0,SSE,3.5,-,N/A,,Clear,160,2013-04-19 07:35:00
3:55 AM,62.6,60.8,94,29.89,10.0,SSE,5.8,-,N/A,,Clear,150,2013-04-19 07:55:00
4:15 AM,62.6,62.6,100,29.89,10.0,SSE,5.8,-,N/A,,Clear,160,2013-04-19 08:15:00
4:35 AM,62.6,62.6,100,29.89,7.0,South,6.9,-,N/A,,Clear,170,2013-04-19 08:35:00
4:55 AM,62.6,62.6,100,29.89,10.0,South,5.8,-,N/A,,Clear,180,2013-04-19 08:55:00
5:15 AM,62.6,62.6,100,29.88,10.0,South,6.9,-,N/A,,Mostly Cloudy,170,2013-04-19 09:15:00
5:35 AM,62.6,62.6,100,29.87,10.0,SSE,9.2,-,N/A,,Mostly Cloudy,160,2013-04-19 09:35:00
5:55 AM,64.4,62.6,94,29.88,10.0,South,9.2,-,N/A,,Overcast,180,2013-04-19 09:55:00
6:15 AM,64.4,62.6,94,29.89,10.0,South,8.1,-,N/A,,Overcast,190,2013-04-19 10:15:00
6:35 AM,64.4,62.6,94,29.89,10.0,South,10.4,-,N/A,,Overcast,190,2013-04-19 10:35:00
6:55 AM,64.4,64.4,100,29.91,7.0,SSW,5.8,-,N/A,,Overcast,200,2013-04-19 10:55:00
7:15 AM,64.4,64.4,100,29.91,10.0,SSW,5.8,-,N/A,,Overcast,200,2013-04-19 11:15:00
7:35 AM,64.4,64.4,100,29.91,10.0,SSE,6.9,-,N/A,,Overcast,160,2013-04-19 11:35:00
7:55 AM,64.4,64.4,100,29.91,10.0,South,9.2,-,N/A,,Overcast,170,2013-04-19 11:55:00
8:15 AM,66.2,66.2,100,29.92,7.0,South,6.9,-,N/A,,Overcast,180,2013-04-19 12:15:00
8:35 AM,66.2,66.2,100,29.91,7.0,South,9.2,-,N/A,,Overcast,180,2013-04-19 12:35:00
8:55 AM,68.0,68.0,100,29.90,10.0,South,9.2,-,N/A,,Overcast,180,2013-04-19 12:55:00
9:15 AM,68.0,68.0,100,29.88,10.0,South,10.4,16.1,N/A,,Overcast,170,2013-04-19 13:15:00
9:35 AM,69.8,68.0,94,29.88,10.0,SSW,8.1,-,N/A,,Overcast,200,2013-04-19 13:35:00
9:55 AM,69.8,69.8,100,29.87,10.0,South,11.5,17.3,N/A,,Overcast,180,2013-04-19 13:55:00
10:15 AM,69.8,69.8,100,29.87,10.0,South,10.4,16.1,N/A,,Overcast,190,2013-04-19 14:15:00
10:35 AM,71.6,69.8,94,29.87,10.0,South,12.7,21.9,N/A,,Overcast,190,2013-04-19 14:35:00
10:55 AM,71.6,69.8,94,29.88,10.0,SSW,15.0,24.2,N/A,,Overcast,200,2013-04-19 14:55:00
11:15 AM,71.6,69.8,94,29.88,10.0,SSW,16.1,23.0,N/A,Rain,Light Rain,200,2013-04-19 15:15:00
11:35 AM,71.6,69.8,94,29.88,10.0,SSW,15.0,21.9,N/A,,Overcast,200,2013-04-19 15:35:00
11:55 AM,69.8,69.8,100,29.87,10.0,SSW,11.5,21.9,N/A,Rain,Light Rain,200,2013-04-19 15:55:00
12:15 PM,69.8,69.8,100,29.87,5.0,South,12.7,16.1,N/A,Rain,Rain,190,2013-04-19 16:15:00
12:35 PM,64.4,62.6,94,29.94,1.5,West,18.4,33.4,N/A,Rain-Thunderstorm,Heavy Thunderstorms and Rain,280,2013-04-19 16:35:00
12:55 PM,60.8,60.8,100,29.92,7.0,NW,9.2,13.8,N/A,Rain,Light Rain,310,2013-04-19 16:55:00
1:15 PM,62.6,60.8,94,29.93,10.0,WNW,13.8,-,N/A,Rain,Light Rain,300,2013-04-19 17:15:00
1:35 PM,60.8,60.8,100,29.93,10.0,WNW,13.8,-,N/A,Rain,Light Rain,290,2013-04-19 17:35:00
1:55 PM,59.0,59.0,100,29.92,10.0,NNW,9.2,-,N/A,Rain,Light Rain,330,2013-04-19 17:55:00
2:15 PM,59.0,59.0,100,29.91,10.0,NNW,4.6,-,N/A,Rain,Light Rain,330,2013-04-19 18:15:00
2:35 PM,59.0,55.4,88,29.91,10.0,WNW,11.5,-,N/A,,Mostly Cloudy,300,2013-04-19 18:35:00
2:55 PM,55.4,55.4,100,29.92,10.0,WNW,11.5,17.3,N/A,,Mostly Cloudy,300,2013-04-19 18:55:00
3:15 PM,55.4,55.4,100,29.93,10.0,West,9.2,-,N/A,,Mostly Cloudy,280,2013-04-19 19:15:00
3:35 PM,55.4,53.6,94,29.95,10.0,NW,13.8,18.4,N/A,,Mostly Cloudy,310,2013-04-19 19:35:00
3:55 PM,53.6,51.8,94,29.97,10.0,NW,12.7,-,N/A,Rain,Rain,310,2013-04-19 19:55:00
4:15 PM,53.6,53.6,100,29.96,10.0,WNW,10.4,-,N/A,Rain,Light Rain,300,2013-04-19 20:15:00
4:35 PM,53.6,51.8,94,29.95,10.0,WNW,10.4,-,N/A,,Overcast,290,2013-04-19 20:35:00
4:55 PM,53.6,51.8,94,29.96,10.0,West,8.1,-,N/A,,Overcast,280,2013-04-19 20:55:00
5:15 PM,53.6,51.8,94,29.96,10.0,WNW,9.2,-,N/A,,Light Drizzle,300,2013-04-19 21:15:00
5:35 PM,53.6,51.8,94,29.96,10.0,NW,8.1,-,N/A,Rain,Light Rain,310,2013-04-19 21:35:00
5:55 PM,51.8,51.8,100,29.95,10.0,NW,5.8,-,N/A,Rain,Light Rain,310,2013-04-19 21:55:00
6:15 PM,51.8,51.8,100,29.95,10.0,NW,4.6,-,N/A,Rain,Light Rain,310,2013-04-19 22:15:00
6:35 PM,51.8,51.8,100,29.94,10.0,NW,6.9,-,N/A,Rain,Light Rain,320,2013-04-19 22:35:00
6:55 PM,51.8,50.0,94,29.95,10.0,NW,4.6,-,N/A,,Mostly Cloudy,320,2013-04-19 22:55:00
7:15 PM,51.8,50.0,94,29.96,10.0,NW,8.1,-,N/A,,Mostly Cloudy,310,2013-04-19 23:15:00
7:35 PM,50.0,48.2,94,29.96,10.0,NW,6.9,-,N/A,Rain,Light Rain,310,2013-04-19 23:35:00
7:55 PM,50.0,50.0,100,29.96,10.0,West,4.6,-,N/A,Rain,Light Rain,270,2013-04-19 23:55:00
8:15 PM,50.0,50.0,100,29.99,10.0,NW,10.4,-,N/A,,Scattered Clouds,310,2013-04-20 00:15:00
8:35 PM,50.0,48.2,94,30.01,10.0,NW,5.8,-,N/A,,Clear,310,2013-04-20 00:35:00
8:55 PM,50.0,48.2,94,30.01,10.0,NW,4.6,-,N/A,,Clear,310,2013-04-20 00:55:00
9:15 PM,50.0,50.0,100,30.04,10.0,WNW,6.9,-,N/A,,Clear,290,2013-04-20 01:15:00
9:35 PM,50.0,48.2,94,30.04,10.0,WNW,8.1,-,N/A,,Clear,300,2013-04-20 01:35:00
9:55 PM,50.0,48.2,94,30.04,10.0,WNW,6.9,-,N/A,,Clear,290,2013-04-20 01:55:00
10:15 PM,48.2,48.2,100,30.05,10.0,WNW,6.9,-,N/A,,Clear,300,2013-04-20 02:15:00
10:35 PM,48.2,48.2,100,30.06,10.0,WNW,8.1,-,N/A,,Clear,300,2013-04-20 02:35:00
10:55 PM,48.2,46.4,93,30.08,10.0,WNW,8.1,-,N/A,,Clear,300,2013-04-20 02:55:00
11:15 PM,48.2,46.4,93,30.08,10.0,NNW,4.6,-,N/A,,Clear,330,2013-04-20 03:15:00
11:35 PM,46.4,46.4,100,30.08,10.0,NW,5.8,-,N/A,,Clear,320,2013-04-20 03:35:00
11:55 PM,46.4,44.6,93,30.09,10.0,NW,5.8,-,N/A,,Clear,320,2013-04-20 03:55:00